Location: Newark
(50.0306°N, 2.3272°E)
Time: 23:05:49
(UTC+00:00)

A-11 Canister half - Pass Details

Date: 08 December 2019
Orbit: 1525 x 1684 km, 47.3° (Epoch: 18 January)

Event Time Altitude Azimuth Distance (km) Brightness Sun altitude
Rises 14:01:44 0° 288° (WNW) 4,905 11.8 11.0°
Reaches altitude 10° 14:06:04 10° 273° (W) 3,891 11.6 10.6°
Maximum altitude 14:12:25 19° 232° (SW) 3,152 12.4 10.0°
Drops below altitude 10° 14:18:40 10° 191° (S) 3,798 12.5 9.4°
Sets 14:22:51 0° 175° (S) 4,750 12.4 9.0°
